#timestamp,LO_Frequency,Hit 
1501621215.7,286047074.5,N
1501621235.6,286047071.9,N
1501621255.4,286047071.9,N
1501621275.2,286047074.6,N
1501621295.1,286047075.8,N
1501621296.0,286047075.8,N
1501621315.8,286047075.0,N
1501621335.6,286047077.1,N
1501621355.5,286047077.7,N
1501621375.3,286047076.8,N
1501621395.1,286047077.5,N
1501621415.9,286047075.0,N
1501621435.7,286047077.8,N
1501621455.5,286047077.7,N
1501621475.4,286047078.9,N
1501621495.2,286047076.6,N
1501621515.0,286047078.3,N
1501621515.9,286047078.3,N
1501621535.7,286047077.3,N
1501621555.6,286047077.3,N
1501621575.4,286047075.1,N
1501621595.2,286047076.6,N
1501621615.1,286047079.0,N
1501621616.0,286047079.0,N
1501621635.8,286047080.5,N
1501621655.6,286047078.8,N
1501621675.5,286047079.2,N
1501621695.3,286047079.1,N
1501621715.1,286047076.5,N
1501621735.9,286047079.5,N
1501621755.7,286047079.5,N
1501621775.5,286047076.8,N
1501621795.4,286047080.8,N
1501621815.2,286047081.2,N
1501621835.0,286047080.4,N
1501621835.9,286047080.4,N
1501621855.8,286047079.8,N
1501621875.6,286047081.9,N
1501621895.4,286047081.6,N
1501621915.2,286047081.6,N
1501621935.1,286047083.8,N
1501621936.0,286047083.8,N
1501621955.8,286047083.0,N
1501621975.6,286047082.8,N
1501621995.5,286047082.8,N
1501622015.3,286047084.3,N
1501622035.1,286047081.4,N
1501622055.9,286047084.4,N
1501622075.7,286047084.3,N
1501622095.5,286047083.9,N
1501622115.4,286047081.6,N
1501622135.2,286047084.3,N
1501622155.0,286047081.6,N
1501622155.9,286047081.6,N
1501622175.8,286047085.3,N
1501622195.6,286047083.5,N
1501622215.4,286047083.6,N
1501622235.2,286047083.7,N
1501622255.1,286047084.6,N
1501622256.0,286047084.6,N
1501622275.8,286047087.2,N
1501622295.6,286047087.6,N
1501622315.5,286047085.8,N
1501622335.3,286047085.0,N
1501622355.1,286047084.5,N
1501622375.9,286047089.0,N
1501622395.7,286047088.7,N
1501622415.5,286047086.5,N
1501622435.4,286047085.7,N
1501622455.2,286047085.1,N
1501622475.0,286047085.3,N
1501622475.9,286047085.3,N
1501622495.8,286047086.2,N
1501622515.6,286047087.6,N
1501622535.4,286047087.2,N
1501622555.3,286047086.7,N
1501622575.1,286047086.3,N
1501622576.0,286047086.3,N
1501622595.8,286047084.6,N
1501622615.7,286047086.0,N
1501622635.5,286047083.8,N
1501622655.3,286047083.1,N
1501622675.1,286047083.2,N
1501622695.9,286047083.3,N
1501622715.7,286047083.0,N
1501622735.5,286047083.3,N
1501622755.4,286047083.5,N
1501622775.2,286047083.2,N
1501622795.0,286047083.6,N
1501622795.9,286047083.6,N
1501622815.8,286047085.9,N
1501622835.6,286047083.7,N
1501622855.4,286047083.8,N
1501622875.3,286047083.1,N
1501622895.1,286047084.7,N
1501622896.0,286047084.7,N
1501622915.8,286047085.2,N
1501622935.7,286047086.9,N
1501622955.5,286047088.7,N
1501622975.3,286047090.5,N
1501622995.2,286047089.9,N
1501623015.9,286047090.0,N
1501623035.7,286047088.2,N
1501623055.5,286047090.7,N
1501623075.4,286047089.1,N
1501623095.2,286047086.4,N
1501623115.0,286047091.1,N
1501623115.9,286047091.1,N
1501623135.8,286047091.0,N
1501623155.6,286047091.0,N
1501623175.4,286047093.1,N
1501623195.3,286047095.6,N
1501623215.1,286047096.2,N
1501623235.8,286047094.5,N
1501623255.7,286047093.1,N
1501623275.5,286047094.9,N
1501623295.3,286047096.1,N
1501623315.2,286047098.4,N
1501623335.9,286047098.5,N
1501623355.7,286047097.6,N
1501623375.6,286047098.3,N
1501623395.4,286047096.8,N
1501623415.2,286047095.2,N
1501623435.0,286047094.9,N
1501623435.9,286047094.9,N
1501623455.8,286047096.7,N
1501623475.6,286047094.1,N
1501623495.4,286047096.8,N
1501623515.3,286047096.0,N
1501623535.1,286047096.0,N
1501623555.8,286047096.1,N
1501623575.7,286047096.7,N
1501623595.5,286047095.9,N
1501623615.3,286047097.2,N
1501623635.2,286047092.5,N
1501623655.9,286047094.8,N
1501623675.7,286047094.9,N
1501623695.6,286047093.1,N
1501623715.4,286047093.9,N
1501623735.2,286047092.2,N
1501623755.0,286047095.3,N
1501623755.9,286047095.3,N
1501623775.8,286047093.1,N
1501623795.6,286047096.7,N
1501623815.4,286047096.8,N
1501623835.3,286047096.3,N
1501623855.1,286047098.2,N
1501623875.8,286047102.3,N
1501623895.7,286047102.5,N
1501623915.5,286047102.9,N
1501623935.3,286047104.3,N
1501623955.2,286047104.9,N
1501623975.9,286047102.6,N
1501623995.7,286047106.5,N
1501624015.6,286047110.0,N
1501624035.4,286047111.3,Y
1501624055.2,286047067.5,N
1501624075.1,286047069.2,N
1501624076.0,286047069.2,N
1501624095.8,286047070.8,N
1501624115.6,286047071.7,N
1501624135.5,286047076.8,N
1501624155.3,286047076.5,N
1501624175.1,286047078.5,N
1501624195.8,286047082.6,N
1501624215.7,286047085.3,N
1501624235.5,286047085.8,N
1501624255.3,286047086.5,N
1501624275.2,286047089.9,N
1501624295.9,286047091.3,N
1501624315.7,286047091.6,N
1501624335.6,286047095.6,N
1501624355.4,286047096.4,N
1501624375.2,286047095.0,N
1501624395.1,286047094.3,N
1501624396.0,286047094.3,N
1501624415.8,286047096.0,N
1501624435.6,286047098.3,N
1501624455.5,286047098.9,N
1501624475.3,286047103.5,N
1501624495.1,286047105.8,N
1501624515.9,286047113.2,Y
1501624535.7,286047070.1,N
1501624555.5,286047070.3,N
1501624575.4,286047072.6,N
1501624595.2,286047077.6,N
1501624615.0,286047079.3,N
1501624615.9,286047079.3,N
1501624635.8,286047079.8,N
1501624655.6,286047084.8,N
1501624675.4,286047088.4,N
1501624695.2,286047092.2,N
1501624715.1,286047098.6,N
1501624716.0,286047098.6,N
1501624735.8,286047101.5,N
1501624755.7,286047104.9,Y
1501624775.5,286047068.4,N
1501624795.3,286047071.6,N
